EW2142 Weather Reports


Display with metric or nautical units.
time (UTC)temp
F
wind
direction
speed
MPH
gust
MPH
rain 1hr
in
rain 24hr
in
rain mn
in
humidity
%
barometer
mb
20260901133503 67 267 0.0 3.0 0.00 0.44 0.13 54 1009.4
20260901133003 68 288 0.0 1.0 0.00 0.44 0.13 47 1009.4
20260901132524 68 287 0.0 1.0 0.00 0.44 0.13 47 1009.3
20260901132002 68 300 0.0 1.0 0.00 0.44 0.13 55 1009.3
20260901131503 68 316 0.0 1.0 0.00 0.44 0.13 54 1009.4
20260901131003 68 306 0.0 2.0 0.00 0.44 0.13 50 1009.4
20260901130502 68 303 0.0 2.0 0.00 0.44 0.13 53 1009.4
20260901130003 68 274 0.0 1.0 0.00 0.44 0.13 52 1009.4
20260901125503 68 272 0.0 1.0 0.00 0.44 0.13 55 1009.3
20260901125003 69 268 0.0 1.0 0.00 0.44 0.13 55 1009.3
20260901124503 69 235 0.0 2.0 0.00 0.44 0.13 51 1009.3
20260901124003 69 255 0.0 2.0 0.00 0.44 0.13 57 1009.3
20260901123503 69 305 0.0 2.0 0.00 0.44 0.13 55 1009.2
20260901123003 69 288 0.0 3.0 0.00 0.44 0.13 58 1009.2
20260901122503 69 286 0.0 3.0 0.00 0.44 0.13 58 1009.1
20260901122023 70 321 0.0 2.0 0.00 0.44 0.13 57 1009.2
20260901121503 70 305 0.0 2.0 0.00 0.44 0.13 59 1009.2
20260901121003 71 294 0.0 2.0 0.00 0.44 0.13 60 1009.2
20260901120503 71 302 0.0 2.0 0.00 0.44 0.13 56 1009.2
20260901120024 70 341 0.0 2.0 0.00 0.44 0.13 57 1009.2
20260901115502 70 305 0.0 1.0 0.00 0.44 0.13 48 1009.2
20260901115003 69 309 0.0 1.0 0.00 0.44 0.13 55 1009.1
20260901114524 69 309 0.0 3.0 0.00 0.44 0.13 51 1009.1
20260901114024 68 307 0.0 3.0 0.00 0.44 0.13 47 1009.1
20260901113503 68 278 0.0 1.0 0.00 0.44 0.13 47 1009.2
20260901113024 67 345 0.0 1.0 0.00 0.44 0.13 42 1009.2
20260901112503 67 323 0.0 2.0 0.00 0.44 0.13 48 1009.2
20260901112003 67 311 0.0 2.0 0.00 0.44 0.13 44 1009.1
20260901111502 67 0 0.0 0.0 0.00 0.44 0.13 31 1009.1
20260901111003 66 0 0.0 0.0 0.00 0.44 0.13 17 1009.2
20260901110503 66 0 0.0 0.0 0.00 0.44 0.13 26 1009.1
20260901110003 65 178 0.0 1.0 0.00 0.44 0.13 19 1009.1
20260901105503 66 166 0.0 1.0 0.00 0.44 0.13 26 1009.1
20260901105003 66 320 0.0 1.0 0.00 0.44 0.13 25 1009.1
20260901104503 66 304 0.0 1.0 0.00 0.44 0.13 27 1009.0
20260901104003 66 337 0.0 2.0 0.00 0.44 0.13 24 1009.0
20260901103503 66 318 0.0 3.0 0.00 0.44 0.13 27 1008.9
20260901103003 66 314 0.0 3.0 0.00 0.44 0.13 43 1008.8
20260901102503 66 117 0.0 1.0 0.00 0.44 0.13 23 1008.8
20260901102003 66 302 0.0 1.0 0.00 0.44 0.13 25 1008.8
20260901101523 65 302 0.0 2.0 0.00 0.44 0.13 26 1008.8
20260901101002 65 304 0.0 3.0 0.00 0.44 0.13 36 1008.7
20260901100502 66 306 0.0 3.0 0.00 0.44 0.13 30 1008.6
20260901100003 65 248 0.0 2.0 0.00 0.44 0.13 18 1008.5
20260901095503 65 272 0.0 2.0 0.00 0.44 0.13 15 1008.5
20260901095024 65 315 0.0 2.0 0.00 0.44 0.13 29 1008.4
20260901094503 66 327 0.0 2.0 0.00 0.44 0.13 29 1008.4
20260901094003 66 0 0.0 0.0 0.00 0.44 0.13 22 1008.3
20260901093503 66 0 0.0 0.0 0.00 0.44 0.13 9 1008.3
20260901093003 65 0 0.0 0.0 0.00 0.44 0.13 2 1008.2
20260901092503 64 318 0.0 1.0 0.00 0.44 0.13 1 1008.1
20260901092024 64 317 0.0 1.0 0.00 0.44 0.13 1 1008.0
20260901091503 64 321 0.0 2.0 0.00 0.44 0.13 1 1008.0
20260901091002 64 325 0.0 2.0 0.00 0.44 0.13 1 1008.0
20260901090502 63 336 0.0 1.0 0.00 0.44 0.13 1 1008.0
20260901090003 63 292 0.0 1.0 0.00 0.44 0.13 1 1008.0
20260901085503 62 293 0.0 1.0 0.00 0.44 0.13 1 1008.0
20260901085003 63 127 0.0 1.0 0.00 0.44 0.13 1 1008.0
20260901084503 63 0 0.0 1.0 0.00 0.44 0.13 1 1008.0
20260901084003 62 278 0.0 1.0 0.00 0.44 0.13 1 1008.0
20260901083503 63 304 0.0 2.0 0.00 0.44 0.13 1 1007.9
20260901083003 63 305 0.0 2.0 0.00 0.44 0.13 1 1007.9
20260901082503 63 0 0.0 0.0 0.00 0.44 0.13 1 1007.9
20260901082024 63 287 0.0 1.0 0.00 0.44 0.13 1 1007.8
20260901081502 63 287 0.0 1.0 0.00 0.44 0.13 1 1007.7
20260901081003 62 23 0.0 1.0 0.00 0.44 0.13 1 1007.7
20260901080502 62 66 0.0 1.0 0.00 0.44 0.13 1 1007.8
20260901080003 62 120 0.0 1.0 0.00 0.44 0.13 1 1007.7
20260901075503 62 0 0.0 0.0 0.00 0.44 0.13 1 1007.7
20260901075003 61 0 0.0 0.0 0.00 0.44 0.13 1 1007.7
20260901074503 61 0 0.0 0.0 0.00 0.44 0.13 1 1007.7
20260901074003 61 0 0.0 0.0 0.00 0.44 0.13 1 1007.7
20260901073524 61 0 0.0 0.0 0.00 0.44 0.13 1 1007.7
20260901073003 61 0 0.0 0.0 0.00 0.44 0.13 1 1007.7
20260901072503 61 0 0.0 0.0 0.00 0.44 0.13 1 1007.6
20260901072003 60 0 0.0 0.0 0.00 0.44 0.13 1 1007.6
20260901071502 60 0 0.0 0.0 0.00 0.44 0.13 1 1007.6
20260901071024 60 0 0.0 0.0 0.00 0.44 0.13 1 1007.6
20260901070503 60 0 0.0 0.0 0.00 0.44 0.13 1 1007.5
20260901070003 60 0 0.0 0.0 0.00 0.44 0.13 1 1007.5
20260901065524 60 0 0.0 0.0 0.00 0.44 0.13 1 1007.5
20260901065003 59 0 0.0 0.0 0.00 0.44 0.13 1 1007.5
20260901064503 59 0 0.0 0.0 0.00 0.44 0.13 1 1007.5
20260901064003 59 0 0.0 0.0 0.00 0.44 0.13 1 1007.4
20260901063503 59 0 0.0 0.0 0.00 0.44 0.13 1 1007.4
20260901063003 59 0 0.0 0.0 0.00 0.44 0.13 1 1007.4
20260901062503 59 0 0.0 0.0 0.00 0.44 0.13 1 1007.3
20260901062024 59 0 0.0 0.0 0.00 0.44 0.13 1 1007.3
20260901061502 59 0 0.0 0.0 0.00 0.44 0.13 1 1007.3
20260901061002 59 0 0.0 0.0 0.00 0.44 0.13 1 1007.2
20260901060503 59 0 0.0 0.0 0.00 0.44 0.13 1 1007.1
20260901060003 59 0 0.0 0.0 0.00 0.44 0.13 1 1007.2
20260901055503 59 0 0.0 0.0 0.00 0.44 0.13 1 1007.2
20260901055003 59 0 0.0 0.0 0.00 0.44 0.13 1 1007.2
20260901054503 59 0 0.0 0.0 0.00 0.44 0.13 1 1007.1
20260901054003 59 0 0.0 0.0 0.00 0.44 0.13 1 1007.1
20260901053503 59 0 0.0 0.0 0.00 0.44 0.13 1 1007.1
20260901053003 59 0 0.0 0.0 0.00 0.44 0.13 1 1007.1
20260901052503 58 0 0.0 0.0 0.00 0.44 0.13 1 1007.1
20260901052004 58 0 0.0 0.0 0.00 0.44 0.13 1 1007.0
20260901051503 58 0 0.0 0.0 0.00 0.44 0.13 1 1007.0
20260901051024 58 0 0.0 0.0 0.00 0.44 0.13 1 1007.0
20260901050524 58 0 0.0 0.0 0.00 0.44 0.13 1 1007.0
20260901050003 58 0 0.0 0.0 0.00 0.44 0.13 1 1006.8
20260901045502 58 0 0.0 0.0 0.00 0.44 0.13 1 1006.8
20260901045003 58 0 0.0 0.0 0.00 0.44 0.13 1 1006.8
20260901044505 58 0 0.0 0.0 0.00 0.44 0.13 1 1006.7
20260901044024 58 0 0.0 0.0 0.00 0.44 0.13 1 1006.7
20260901043503 58 0 0.0 0.0 0.00 0.44 0.13 1 1006.6
20260901043003 58 0 0.0 0.0 0.00 0.44 0.13 1 1006.6
20260901042503 58 0 0.0 0.0 0.00 0.44 0.13 1 1006.6
20260901042003 58 0 0.0 0.0 0.00 0.44 0.13 1 1006.6
20260901041503 58 0 0.0 0.0 0.00 0.44 0.13 1 1006.6
20260901041003 58 0 0.0 0.0 0.00 0.44 0.13 1 1006.5
20260901040502 58 0 0.0 0.0 0.00 0.44 0.13 1 1006.5
20260901040003 58 0 0.0 0.0 0.00 0.44 0.13 1 1006.5
20260901035502 58 0 0.0 0.0 0.00 0.44 0.13 1 1006.4
20260901035003 58 0 0.0 0.0 0.00 0.44 0.13 1 1006.5
20260901034503 58 0 0.0 0.0 0.00 0.44 0.13 1 1006.4
20260901034003 58 0 0.0 0.0 0.00 0.44 0.13 1 1006.4
20260901033524 58 0 0.0 0.0 0.00 0.44 0.13 1 1006.3
20260901033003 58 0 0.0 0.0 0.00 0.44 0.13 1 1006.3
20260901032503 58 0 0.0 0.0 0.00 0.44 0.13 1 1006.3
20260901032003 58 0 0.0 0.0 0.00 0.44 0.13 1 1006.3
20260901031524 58 0 0.0 0.0 0.00 0.44 0.13 1 1006.3
20260901031002 58 0 0.0 0.0 0.00 0.44 0.13 1 1006.2
20260901030503 58 0 0.0 0.0 0.00 0.44 0.13 1 1006.2
20260901030003 58 0 0.0 0.0 0.00 0.44 0.13 1 1006.2
20260901025524 57 0 0.0 0.0 0.00 0.44 0.13 1 1006.2
20260901025003 57 0 0.0 0.0 0.00 0.44 0.13 1 1006.2
20260901024503 57 0 0.0 0.0 0.00 0.44 0.13 1 1006.2
20260901024002 57 0 0.0 0.0 0.00 0.44 0.13 1 1006.2
20260901023503 57 0 0.0 0.0 0.00 0.44 0.13 1 1006.1
20260901023024 57 0 0.0 0.0 0.00 0.44 0.13 1 1006.1
20260901022503 57 0 0.0 0.0 0.00 0.44 0.13 1 1006.1
20260901022003 57 0 0.0 0.0 0.00 0.44 0.13 1 1006.0
20260901021503 57 0 0.0 0.0 0.00 0.44 0.13 1 1006.0
20260901021002 57 0 0.0 0.0 0.00 0.44 0.13 1 1006.0
20260901020502 58 0 0.0 0.0 0.00 0.44 0.13 1 1006.0
20260901020002 58 0 0.0 0.0 0.00 0.44 0.13 1 1006.0
20260901015503 58 0 0.0 0.0 0.00 0.44 0.13 1 1005.9
20260901015003 58 0 0.0 0.0 0.00 0.44 0.13 1 1005.9
20260901014503 58 0 0.0 0.0 0.00 0.44 0.13 1 1005.9
20260901014003 58 0 0.0 0.0 0.00 0.44 0.13 1 1005.8
20260901013503 58 0 0.0 0.0 0.00 0.44 0.13 1 1005.8
20260901013003 58 0 0.0 0.0 0.00 0.45 0.13 1 1005.9
20260901012503 58 0 0.0 0.0 0.00 0.45 0.13 1 1005.9
20260901012003 58 0 0.0 0.0 0.00 0.45 0.13 1 1005.8
20260901011503 58 0 0.0 0.0 0.03 0.45 0.13 1 1005.8
20260901011003 58 0 0.0 0.0 0.04 0.45 0.13 1 1005.8
20260901010503 58 0 0.0 0.0 0.07 0.45 0.13 1 1005.8
20260901010003 58 0 0.0 0.0 0.13 0.45 0.13 1 1005.8
20260901005503 58 0 0.0 0.0 0.13 0.45 0.13 1 1005.7
20260901005024 58 0 0.0 0.0 0.13 0.45 0.13 1 1005.7
20260901004503 58 0 0.0 0.0 0.13 0.45 0.13 1 1005.7
20260901004003 58 0 0.0 0.0 0.13 0.45 0.13 1 1005.8
20260901003503 58 0 0.0 0.0 0.13 0.45 0.13 1 1005.7
20260901003024 58 0 0.0 0.0 0.13 0.45 0.13 1 1005.7
20260901002503 58 0 0.0 0.0 0.13 0.45 0.13 1 1005.7
20260901002003 58 0 0.0 0.0 0.13 0.45 0.13 1 1005.7
20260901001503 58 0 0.0 0.0 0.10 0.42 0.10 1 1005.7
20260901001003 58 0 0.0 0.0 0.09 0.41 0.09 1 1005.6
20260901000502 58 0 0.0 0.0 0.06 0.38 0.06 1 1005.7
20260901000003 58 0 0.0 0.0 0.00 0.31 0.00 1 1005.7
20260831235503 58 0 0.0 0.0 0.00 0.31 0.00 1 1005.7
20260831235003 58 0 0.0 0.0 0.00 0.31 0.00 1 1005.7
20260831234502 57 0 0.0 0.0 0.00 0.31 0.00 1 1005.7
20260831234003 57 0 0.0 0.0 0.00 0.31 0.00 1 1005.6
20260831233503 57 0 0.0 0.0 0.00 0.31 0.00 1 1005.6
20260831233003 57 0 0.0 0.0 0.00 0.31 0.00 1 1005.6
20260831232503 57 0 0.0 0.0 0.00 0.31 0.00 1 1005.6
20260831232003 57 0 0.0 0.0 0.00 0.31 0.00 1 1005.6
20260831231503 58 0 0.0 0.0 0.00 0.31 0.00 1 1005.6
20260831231024 58 0 0.0 0.0 0.00 0.31 0.00 1 1005.6
20260831230503 58 0 0.0 0.0 0.00 0.31 0.00 1 1005.7
20260831230003 58 0 0.0 0.0 0.00 0.31 0.00 1 1005.7
20260831225504 58 0 0.0 0.0 0.00 0.31 0.00 1 1005.7
20260831225003 58 0 0.0 0.0 0.00 0.31 0.00 1 1005.7
20260831224524 58 0 0.0 0.0 0.00 0.31 0.00 1 1005.7
20260831224003 57 0 0.0 0.0 0.00 0.31 0.00 1 1005.6
20260831223503 57 0 0.0 0.0 0.00 0.31 0.00 1 1005.6
20260831223003 57 0 0.0 0.0 0.00 0.31 0.00 1 1005.6
20260831222503 57 0 0.0 0.0 0.00 0.31 0.00 1 1005.6
20260831222003 57 0 0.0 0.0 0.00 0.31 0.00 1 1005.6
20260831221503 57 0 0.0 0.0 0.00 0.31 0.00 1 1005.6
20260831221024 57 0 0.0 0.0 0.00 0.31 0.00 1 1005.6
20260831220503 57 0 0.0 0.0 0.00 0.31 0.00 1 1005.6
20260831220004 57 0 0.0 0.0 0.00 0.31 0.00 1 1005.6
20260831215524 57 0 0.0 0.0 0.00 0.31 0.31 1 1005.5
20260831215003 57 0 0.0 0.0 0.00 0.31 0.31 1 1005.5
20260831214524 57 0 0.0 0.0 0.00 0.31 0.31 1 1005.5
20260831214003 57 0 0.0 0.0 0.00 0.31 0.31 1 1005.4
20260831213503 57 0 0.0 0.0 0.00 0.31 0.31 1 1005.5
20260831213003 57 0 0.0 0.0 0.00 0.31 0.31 1 1005.5
20260831212503 57 0 0.0 0.0 0.00 0.31 0.31 1 1005.4
20260831212003 58 0 0.0 0.0 0.00 0.31 0.31 1 1005.3
20260831211503 58 0 0.0 0.0 0.00 0.31 0.31 1 1005.3
20260831211003 58 0 0.0 0.0 0.00 0.31 0.31 1 1005.3
20260831210503 58 0 0.0 0.0 0.00 0.31 0.31 1 1005.3
20260831210002 58 0 0.0 0.0 0.00 0.31 0.31 1 1005.3
20260831205502 58 0 0.0 0.0 0.00 0.31 0.31 1 1005.4
20260831205003 58 0 0.0 0.0 0.00 0.31 0.31 1 1005.4
20260831204502 58 0 0.0 0.0 0.00 0.31 0.31 1 1005.3
20260831204024 58 0 0.0 0.0 0.00 0.31 0.31 1 1005.4
20260831203524 58 0 0.0 0.0 0.00 0.31 0.31 1 1005.4
20260831203003 58 0 0.0 0.0 0.00 0.31 0.31 1 1005.4
20260831202503 58 0 0.0 0.0 0.00 0.31 0.31 1 1005.4
20260831202003 58 0 0.0 0.0 0.00 0.31 0.31 1 1005.4
20260831201503 58 0 0.0 0.0 0.00 0.31 0.31 1 1005.4
20260831201003 58 0 0.0 0.0 0.00 0.31 0.31 1 1005.4
20260831200503 58 0 0.0 0.0 0.00 0.31 0.31 1 1005.4
20260831200002 58 0 0.0 0.0 0.00 0.31 0.31 1 1005.4
20260831195524 58 0 0.0 0.0 0.00 0.31 0.31 1 1005.4
20260831195024 58 0 0.0 0.0 0.00 0.31 0.31 1 1005.4
20260831194502 58 0 0.0 0.0 0.00 0.31 0.31 1 1005.4
20260831194003 58 0 0.0 0.0 0.00 0.31 0.31 1 1005.4
20260831193503 58 0 0.0 0.0 0.00 0.31 0.31 1 1005.3
20260831193003 58 0 0.0 0.0 0.00 0.31 0.31 1 1005.3
20260831192503 58 0 0.0 0.0 0.00 0.31 0.31 1 1005.3
20260831192024 58 0 0.0 0.0 0.00 0.31 0.31 1 1005.3
20260831191503 58 0 0.0 0.0 0.00 0.31 0.31 1 1005.3
20260831191003 58 0 0.0 0.0 0.00 0.31 0.31 1 1005.2
20260831190503 58 0 0.0 0.0 0.00 0.31 0.31 1 1005.2
20260831190002 58 0 0.0 0.0 0.00 0.31 0.31 1 1005.1
20260831185503 58 0 0.0 0.0 0.00 0.31 0.31 1 1005.1
20260831185003 58 0 0.0 0.0 0.00 0.31 0.31 1 1005.2
20260831184502 58 0 0.0 0.0 0.00 0.31 0.31 1 1005.2
20260831184003 58 0 0.0 0.0 0.00 0.31 0.31 1 1005.1
20260831183503 59 0 0.0 0.0 0.00 0.31 0.31 1 1005.1
20260831183003 59 0 0.0 0.0 0.00 0.31 0.31 1 1005.1
20260831182503 59 0 0.0 0.0 0.00 0.31 0.31 1 1005.0
20260831182003 59 0 0.0 0.0 0.00 0.31 0.31 1 1005.0
20260831181503 59 0 0.0 0.0 0.01 0.31 0.31 1 1005.0
20260831181003 59 0 0.0 0.0 0.02 0.31 0.31 1 1005.0
20260831180503 59 0 0.0 0.0 0.02 0.31 0.31 1 1005.0
20260831180002 59 0 0.0 0.0 0.03 0.31 0.31 1 1005.0
20260831175502 59 0 0.0 0.0 0.04 0.31 0.31 1 1005.0
20260831175002 59 0 0.0 0.0 0.04 0.31 0.31 1 1004.9
20260831174503 59 0 0.0 0.0 0.05 0.31 0.31 1 1004.9
20260831174003 59 0 0.0 0.0 0.06 0.31 0.31 1 1004.9
20260831173503 59 0 0.0 0.0 0.08 0.31 0.31 1 1004.8
20260831173024 59 0 0.0 0.0 0.09 0.31 0.31 1 1004.9
20260831172524 59 0 0.0 0.0 0.12 0.31 0.31 1 1004.8
20260831172003 59 0 0.0 0.0 0.13 0.31 0.31 1 1004.8
20260831171503 60 0 0.0 0.0 0.15 0.31 0.31 1 1004.8
20260831171003 60 0 0.0 0.0 0.15 0.30 0.30 1 1004.8
20260831170503 60 0 0.0 0.0 0.15 0.29 0.29 1 1004.8
20260831170024 60 0 0.0 0.0 0.15 0.28 0.29 1 1004.8
20260831165503 60 0 0.0 0.0 0.14 0.28 0.28 1 1004.7
20260831165024 60 0 0.0 0.0 0.14 0.28 0.28 1 1004.7
20260831164503 60 0 0.0 0.0 0.13 0.28 0.27 1 1004.8
20260831164003 60 0 0.0 0.0 0.12 0.27 0.25 1 1004.7
20260831163503 60 0 0.0 0.0 0.10 0.27 0.24 1 1004.7
20260831163003 60 0 0.0 0.0 0.09 0.26 0.22 1 1004.7
20260831162503 60 0 0.0 0.0 0.06 0.24 0.20 1 1004.8
20260831162003 60 112 0.0 1.0 0.05 0.24 0.18 1 1004.8
20260831161503 60 114 0.0 1.0 0.02 0.21 0.16 1 1004.9
20260831161024 60 119 0.0 1.0 0.02 0.21 0.15 1 1004.9
20260831160524 60 0 0.0 0.0 0.01 0.21 0.14 1 1004.9
20260831160003 60 0 0.0 0.0 0.00 0.21 0.13 1 1004.9
20260831155503 60 0 0.0 0.0 0.00 0.23 0.13 1 1004.9
20260831155024 60 0 0.0 0.0 0.00 0.25 0.13 1 1004.9
20260831154503 60 117 0.0 1.0 0.00 0.26 0.13 1 1005.0
20260831154003 60 117 0.0 1.0 0.00 0.28 0.13 1 1005.0
20260831153503 61 0 0.0 0.0 0.00 0.28 0.13 1 1005.0
20260831153024 61 0 0.0 0.0 0.02 0.29 0.13 1 1005.0
20260831152524 61 0 0.0 0.0 0.03 0.31 0.13 1 1005.0
20260831152003 61 0 0.0 1.0 0.05 0.32 0.13 1 1005.0
20260831151503 61 0 0.0 1.0 0.08 0.33 0.13 1 1005.0
20260831151003 61 0 0.0 0.0 0.09 0.35 0.13 1 1005.0
20260831150503 60 0 0.0 0.0 0.12 0.35 0.13 1 1005.1
20260831150002 60 0 0.0 0.0 0.13 0.35 0.13 1 1005.1
20260831145503 60 0 0.0 0.0 0.13 0.35 0.13 1 1005.1
20260831145003 60 0 0.0 0.0 0.13 0.36 0.13 1 1005.1
20260831144502 60 0 0.0 0.0 0.13 0.36 0.13 1 1005.2
20260831144024 60 0 0.0 0.0 0.13 0.37 0.13 1 1005.1
20260831143503 60 0 0.0 0.0 0.13 0.37 0.13 1 1005.1
20260831143002 60 0 0.0 0.0 0.11 0.36 0.12 1 1005.1
20260831142503 60 0 0.0 0.0 0.09 0.36 0.10 1 1005.0
20260831142003 61 0 0.0 0.0 0.08 0.35 0.09 1 1005.1
20260831141503 62 165 0.0 1.0 0.05 0.34 0.06 1 1005.1
20260831141003 63 165 0.0 1.0 0.03 0.34 0.04 1 1005.1
20260831140503 64 319 0.0 1.0 0.01 0.31 0.02 19 1005.2
20260831140003 65 303 0.0 1.0 0.00 0.31 0.01 34 1005.1
20260831135503 66 135 0.0 2.0 0.00 0.31 0.01 39 1005.1
20260831135002 66 120 0.0 2.0 0.00 0.31 0.01 42 1005.1
20260831134503 66 125 0.0 4.0 0.00 0.31 0.01 45 1005.1
20260831134003 66 130 0.0 4.0 0.00 0.31 0.01 48 1005.1